Погода в Сортавале

Хотите узнать прогноз погоды в Сортавале? Тогда Вам сюда: Погода в Сортавале

Поиск расширенной информации на нашем сайте:

Полезная информация:

Новости сайта



02.01.2020
Опубликован Долгосрочный прогноз погоды по городам России и ближнего зарубежья на январь 2020 года.
Карты: Прогноз на январь и февраль 2020 года, Сравнение прогнозируемой аномалии приземной температуры воздуха на январь 2020 года по разным моделям.




Погода в Сортавале - сегодня

Время (UTC), дата Ветер
(°,м/с) 
Видим.   Явления Облачность Т
(°С)
Тd
(°С)
f(%) Тe
(°С)
Pmin
(гПа)
dP
(гПа)
Po
(мм)
O2
(г/м3)
Тmin Tmax R s Состояние
почвы
00 30.11.20 060 (СВ) 50000 м    10/10 570 м 
[Sc]
-1.7 -3 91 -4  1028.3  -2.1  769  312           
03 30.11.20 080 (В) 15000 м  слаб. ливневой снег  10/10 600 м кучево-дожд. 
[Cb cap]
-1.4 -2.5 92 -4  1026.6  -1.7  768  311  -2.4    0.0     
06 30.11.20 090 (В) 9000 м  слаб. ливневой снег  10/10 300 м кучево-дожд. 
[Cb cap]
-0.7 -1.7 93 -4  1024.6  -2  767  310  -2.3    0.2  равномерный
сухой снег
100% 
09 30.11.20 080 (В) 6000 м  слаб. ливневой дождь со снегом  10/10 300 м кучево-дожд. 
[Cb cap]
+0.3 -0.1 97 -2  1023.2  -1.4  766  308           
12 30.11.20 170 (Ю) 15000 м  слаб. ливневой дождь со снегом  10/10 480 м кучево-дожд. 
[Cb cap]
+2.4 +1.1 91 +1  1021.6  -1.6  764  305           
15 30.11.20 170 (Ю) 40000 м  {ливн. осадки}  10/10 630 м 
[Sc]
+2.2 -0.2 84 +2  1020.4  -1.2  764  305         
18 30.11.20 220 (ЮЗ) 50000 м  {ливн. осадки}  9/4 600 м средняя 
[Sc|As trans]
+1.9 -2.2 74 +1  1018.8  -1.6  762  305    +2.6     
21 30.11.20 110 (В) 50000 м  {ливн. осадки}  9/3 600 м кучево-дожд., средняя 
[Cb cap|As trans]
-0.3 -1.4 92 1018.4  -0.4  762  308           
00 01.12.20 тихо ()   50000 м  {ливн. осадки}  9/8 960 м средняя 
[Sc|Ac trans]
-1.4 -2.2 94 -1  1017.8  -0.6  762  309           
03 01.12.20 220 (ЮЗ) 8000 м  слаб. крупа{ливн. осадки}  9/8 800 м кучево-дожд., средняя 
[Cb cap|Ac trans]
+0.4 -2 84 1017.9  0.1  762  307  -1.7    0.5     
06 01.12.20 250 (З) 50000 м  {ливн. осадки}  9/5 600 м кучево-дожд., средняя 
[Cb cap|Ac trans]
-1.8 -3 91 -1  1018.1  0.2  762  309  -2.2    0.5  равномерный
сухой снег
100% 
09 01.12.20 200 (Ю) 20000 м    9/3 600 м кучево-дожд., средняя 
[Cb cap|Ac trans]
+0.8 -1.2 86 1019.1  763  307           
12 01.12.20 180 (Ю) 3400 м  слаб. ливневой дождь  10/10 400 м кучево-дожд. 
[Cb cap]
+1 -0.2 92 -1  1018.8  -0.3  762  306           
15 01.12.20 220 (ЮЗ) 4{10}  40000 м  в посл. час ливневой дождь  10/10 450 м кучево-дожд. 
[Cb cap]
+2.3 +1 91 1019.3  0.5  763  305         
21 01.12.20 240 (ЮЗ) 15000 м  в посл. час ливневой дождь  10/10 480 м кучево-дожд. 
[Cb cap]
+2.6 +1.7 94 +2  1023.9  2.6  766  306           
00 02.12.20 220 (ЮЗ) 23000 м  {ливн. осадки}  10/10 480 м кучево-дожд. 
[Cb cap]
+2.6 +1.6 93 +3  1025.6  1.7  767  306           
03 02.12.20 260 (З) 30000 м    10/10 700 м кучево-дожд. 
[Cb cap]
+2.2 +1.3 94 +3  1027  1.4  768  307  +2.2    0.7     
06 02.12.20 210 (ЮЗ) 50000 м    10/10 570 м кучево-дожд. 
[Cb cap]
+1.5 +0.9 96 +2  1028.3  1.3  769  308  +1.4    0.7  мокрый или
старый снег
10-40% 
09 02.12.20 тихо ()   4300 м  туман поземный  10/10 540 м кучево-дожд. 
[Cb cap]
+0.8 +0.4 97 +1  1029.3  770  309           
12 02.12.20 230 (ЮЗ) 26000 м    9/4 600 м кучево-дожд., средняя 
[Cb cap|Ac trans]
+2.9 +1.7 92 +2  1029.1  -0.2  770  307           
15 02.12.20 210 (ЮЗ) 12000 м    9/3 600 м кучево-дожд., средняя 
[Cb cap|Ac trans]
+2.5 +0.7 88 +2  1029.6  0.5  770  308           
18 02.12.20 190 (Ю) 50000 м    6/1 600 м верхняя 
[Sc|Ci fib]
-0.2 -1.5 91 -1  1029.9  0.3  771  311    +2.9       
21 02.12.20 200 (Ю) 50000 м    9/9 570 м 
[Sc]
+0.2 -2.1 85 -2  1029.9  771  311           
00 03.12.20 тихо ()   50000 м    9/9 700 м 
[Sc]
-0.7 -2.1 90 -1  1029.2  -0.7  770  311           
03 03.12.20 170 (Ю) 50000 м    10/10 570 м 
[Sc]
+0.1 -2.1 85 -2  1027.9  -1.3  769  310  -0.8         
Время (UTC), дата Ветер
(°,м/с) 
Видим.   Явления Облачность Т
(°С)
Тd
(°С)
f(%) Тe
(°С)
Pmin
(гПа)
dP
(гПа)
Po
(мм)
O2
(г/м3)
Тmin Tmax R s Состояние
почвы

Для получения пояснительной информации подведите курсор к названию столбца.

ПОГОДА в Сортавале - архив

Всё, что Вы хотите узнать о погоде в Сортавале - удобно и подробно!

Выберите нужную дату (начиная с 1 января 2019* года) и нажмите кнопку "Найти".
Будут отображены архивные сводки погоды по пункту Сортавала, начиная с указанной даты.


Отображать данные в формате CSV (для использования в таблицах Excel)


Внимание! Наш архив погоды предназначен исключительно для личного некоммерческого использования в познавательных целях. Если Вам необходимы официальные справки о состоянии погоды (для производственных, юридических, коммерческих и т.п. целей), обращайтесь в органы Росгидромета.

*Примечание: данная дата относится к архиву по метеостанциям СССР (Россия, СНГ, Балтия).
Архив по метеостанциям Зарубежной Европы и Азии (кроме Китая) хранится 10 дней, по другим регионам земного шара (Китай, Африка, Америка, Австралия, Океания) - 1 день.

Сортавала - район местоположения метеостанции


Название, широта, долгота, высота метеостанции:
Сортавала 61.7°ш. 30.7°д. 19 м над ур. моря [Российская Федерация]

Дополнительная информация

В oтличие oт бoльшинства пoгoдных сайтoв мы публикуем пoдрoбную метеoинфoрмацию в детальнoм прoфессиoнальнoм фoрмате.

Характеристики температуры и влажнoсти вoздуха измеряются на высoте 2 м в тени вдали oт зданий и деревьев.
Скoрoсть ветра измеряется на высoте 10 м (на урoвне рoста челoвека скoрoсть ветра ниже в 1.5-2 раза). Если метеoстанция нахoдится в гoрoде или в лесу, тo скoрoсть ветра занижена на 2-4 м/с пo сравнению с oткрытым местoм. Скoрoсть ветра над акватoриями крупных рек и oзёр, а также на вершинах хoлмoв на 2-5 м/с выше, чем в oбычных услoвиях.
Атмoсфернoе давление в разных тoчках местнoсти мoжет значительнo oтличаться oт давления на метеoстанции, в зависимoсти oт услoвий рельефа (при пoдъёме на 10 м давление пoнижается примернo на 1 мм рт.ст.).